STARLINK-37215, 68392

Orbit data source: Space-Track

STARLINK-37215, 68392 is a payload satellite owned by SpaceX/Seattle (US) in SSO that was launched on Thu, 26 Mar 2026 UTC via an FALCON 9 launch vehicle from the Air Force Western Test Range (AFWTR). Payload-class satellites include a variety of spacecraft equipped with specific instruments for various scientific and technological missions. These include communications satellites like Starlink; space stations such as the ISS; scientific satellites like the Hubble; Earth observation satellites from companies like Planet Labs, Umbra, and HawkEye 360; GPS; miniature CubeSats for education and research; and military/defense satellites.

Loading next visibility...
Identifier
68392, 2026-063N
Orbit
SSO
Country
Flag of USUS
Related business
Manufacturer
SpaceX/Seattle
Mission
Operational spacecraft
Bus & Motor
STARLINK V2MO, Unknown motor
Mass
575 kg wet, ~530 kg dry
Launch date (UTC)
2026-03-26 (3 months ago)
Launch vehicle
FALCON 9
Launch site
Air Force Western Test Range (AFWTR)
Object type
Payload
Rocket body
Debris
Shape & HBR
Unknown shape, 17.7 m
Radar Cross Section
Large (>1 m²)

Expand to show TLE details & history
Last TLE update: 6 hours ago

TLE from 6 hours ago
0 STARLINK-37215
1 68392U 26063N   26165.85038819  .00019257  00000-0  59700-3 0  9995
2 68392  97.2878 308.0896 0001627 256.8155 103.2906 15.33460079 12780
Epoch: 2026-06-14T20:24Z
TLE epoch observation values (Epoch: 2026-06-14T20:24:33.539Z)
Latitude
-0.00006°
Longitude
98.80465°
Altitude
468.866 km
Speed
7.632 km/s
True Right ascension
20h 32m 21s
True Declination
0° 00' 00"
Sunlit
Object was in full shadow at epoch
Visualization orbit readout
Latitude
Unknown
Longitude
Unknown
Altitude
Unknown
Speed
Unknown
Apparent Right ascension
Unknown
Apparent Declination
Unknown
Sunlit
N/A
Visualization observer readout
Local Sidereal Time
12:56:31
Azimuth
Unknown
Elevation
Unknown
Doppler factor
Unknown
Orbital elements
Apogee altitude
463.554 km
Perigee altitude
461.328 km
Semi-major axis
6,840.578 km
Eccentricity
0.00016
Inclination
97.2878°
RAAN
308.0896°
Arg. of periapsis
256.8155°
True anomaly
103.30874°
Mean anomaly
103.2906°
Eccentric anomaly
103.29967°
Mean motion
3.83622 °/min
Orbital period
93.84 mins
BSTAR
0.000597
Loading maneuver chart data...
Computing Atmospheric mass density...
Loading historical data...
Loading historical data...
Loading historical data...
Loading historical data...
Loading historical data...
Loading historical data...
Loading historical data...

Documentation

Showing up to 5 results
|